This is the latest recevied weather packets stored in our database for station/object KE8URB. If no packets are shown the sender has not sent any weather packets the latest 10 day(s).
| Time | Temp. | Humidity | Pressure | Rain* | Wind** | Luminosity | Snow |
|---|---|---|---|---|---|---|---|
| 1787586083 | 18.33° C | 71% | 1017.9 hPa | 0 mm | - | 56 W/m² | - |
| 1787585779 | 17.78° C | 70% | 1017.8 hPa | 0 mm | - | 36 W/m² | - |
| 1787585474 | 17.78° C | 71% | 1017.5 hPa | 0 mm | - | 39 W/m² | - |
| 1787585174 | 17.78° C | 71% | 1017.8 hPa | 0 mm | - | 52 W/m² | - |
| 1787584869 | 17.78° C | 72% | 1017.9 hPa | 0 mm | - | 60 W/m² | - |
| 1787584568 | 17.78° C | 72% | 1017.7 hPa | 0 mm | - | 59 W/m² | - |
| 1787584262 | 17.22° C | 72% | 1018 hPa | 0 mm | - | 58 W/m² | - |
| 1787583961 | 17.22° C | 72% | 1017.8 hPa | 0 mm | - | 72 W/m² | - |
| 1787583657 | 17.22° C | 75% | 1017.8 hPa | 0 mm | - | 78 W/m² | - |
| 1787583356 | 17.22° C | 73% | 1017.8 hPa | 0 mm | - | 33 W/m² | - |
| 1787583055 | 16.67° C | 75% | 1017.8 hPa | 0 mm | - | 38 W/m² | - |
| 1787582750 | 16.67° C | 78% | 1017.4 hPa | 0 mm | - | 34 W/m² | - |
| 1787582447 | 16.67° C | 80% | 1017.7 hPa | 0 mm | - | 55 W/m² | - |
| 1787582142 | 16.67° C | 79% | 1017.3 hPa | 0 mm | - | 60 W/m² | - |
| 1787581842 | 16.67° C | 80% | 1017.3 hPa | 0 mm | - | 31 W/m² | - |
| 1787581538 | 16.11° C | 79% | 1017 hPa | 0 mm | - | 62 W/m² | - |
| 1787581237 | 16.11° C | 82% | 1017.3 hPa | 0 mm | - | 31 W/m² | - |
| 1787580937 | 16.11° C | 83% | 1017.4 hPa | 0 mm | - | 33 W/m² | - |
| 1787580633 | 16.11° C | 83% | 1017.3 hPa | 0 mm | - | 33 W/m² | - |
| 1787580328 | 15.56° C | 85% | 1017.4 hPa | 0 mm | - | 31 W/m² | - |
| 1787580024 | 15.56° C | 84% | 1017.4 hPa | 0 mm | - | 31 W/m² | - |
| 1787579723 | 15.56° C | 85% | 1017.4 hPa | 0 mm | - | 31 W/m² | - |
| 1787579418 | 15.56° C | 89% | 1017.4 hPa | 0 mm | - | 32 W/m² | - |
| 1787579113 | 15.56° C | 87% | 1017.3 hPa | 0 mm | - | 36 W/m² | - |
| 1787578809 | 15° C | 88% | 1017.5 hPa | 0 mm | - | 34 W/m² | - |
* Rain latest hour (hover to see other rain measurements)
** Current wind speed in m/s (hover to see current wind gust speed)